Location: Almansa
(38.8670°N, 1.0830°W)
Time: 15:53:33
(UTC+02:00)

ISS - Visible Passes

Search period start: 23 May 2022 00:00
Search period end: 02 June 2022 00:00
Orbit: 414 x 421 km, 51.6° (Epoch: 23 May)

Date Brightness Start Highest point End Pass type
(mag) Time Alt. Az. Time Alt. Az. Time Alt. Az.
23 May -0.9 00:11:51 10° NNW 00:13:41 14° NNE 00:14:26 13° NNE visible
23 May -0.5 21:46:50 10° NNW 21:47:22 10° N 21:47:54 10° N visible
23 May -0.8 23:24:12 10° N 23:25:23 11° NNE 23:26:34 10° NNE visible
24 May -0.8 00:59:49 10° NW 01:00:51 17° NNW 01:00:51 17° NNW visible
25 May -1.6 00:11:58 10° NNW 00:14:22 23° NNE 00:14:22 23° NNE visible
25 May -1.4 23:24:10 10° NNW 23:26:31 17° NNE 23:27:55 14° NE visible
26 May -0.7 01:00:17 10° NW 01:00:49 14° NW 01:00:49 14° NW visible
26 May -1.0 22:36:24 10° NNW 22:38:11 14° NNE 22:39:59 10° NE visible
27 May -2.1 00:12:15 10° NW 00:14:22 34° NNW 00:14:22 34° NNW visible
27 May -2.6 23:24:16 10° NW 23:27:22 34° NNE 23:27:55 31° NE visible
28 May -1.8 22:36:21 10° NNW 22:39:06 23° NNE 22:41:30 12° ENE visible
29 May -1.7 00:12:47 10° WNW 00:14:24 24° WNW 00:14:24 24° WNW visible
29 May -1.4 21:48:28 10° NNW 21:50:46 17° NNE 21:53:04 10° ENE visible
29 May -4.0 23:24:34 10° NW 23:27:55 86° SW 23:28:00 84° SSE visible
30 May -3.3 22:36:27 10° NW 22:39:43 53° NE 22:41:37 22° ESE visible
31 May -0.9 00:14:10 10° W 00:14:32 11° W 00:14:32 11° W visible
31 May -2.5 21:48:24 10° NW 21:51:28 32° NNE 21:54:31 10° E visible
31 May -2.3 23:25:17 10° WNW 23:28:09 27° SW 23:28:12 26° SW visible
01 Jun -3.2 22:36:48 10° WNW 22:40:03 49° SW 22:41:53 22° SSE visible
